Location: A�t Lahcen
(32.8243°N, 5.4246°W)
Time: 02:04:05
(UTC+00:00)

Cosmos 1328 - Pass Details

Date: 27 January 2021
Orbit: 528 x 555 km, 82.5° (Epoch: 26 February)

Event Time Altitude Azimuth Distance (km) Brightness Sun altitude
Exits shadow 06:22:31 - 338° (NNW) 2,199 6.5 -12.3°
Reaches altitude 10° 06:23:37 10° 333° (NNW) 1,777 6.0 -12.0°
Maximum altitude 06:27:08 33° 268° (W) 903 4.4 -11.3°
Drops below altitude 10° 06:30:37 10° 204° (SSW) 1,765 6.3 -10.6°
Sets 06:32:54 0° 194° (SSW) 2,651 7.3 -10.2°
